| time (UTC) | temp F | wind direction | speed MPH | gust MPH | rain 1hr in | rain 24hr in | rain mn in | humidity % | barometer mb |
| 20260506073044 | 54 | 0 | 0.0 | 2.0 | 0.00 | 0.02 | 0.00 | 91 | 1018.6 |
| 20260506071548 | 54 | 0 | 0.0 | 1.0 | 0.00 | 0.02 | 0.00 | 91 | 1018.3 |
| 20260506061537 | 54 | 0 | 0.0 | 0.0 | 0.00 | 0.06 | 0.02 | 92 | 1018.0 |
| 20260506044537 | 55 | 0 | 0.0 | 0.0 | 0.00 | 0.17 | 0.02 | 90 | 1017.3 |
| 20260506043037 | 55 | 97 | 0.0 | 1.0 | 0.00 | 0.17 | 0.02 | 90 | 1017.2 |
| 20260506041546 | 55 | 0 | 0.0 | 0.0 | 0.00 | 0.17 | 0.02 | 89 | 1017.1 |
| 20260506040038 | 55 | 0 | 0.0 | 0.0 | 0.00 | 0.17 | 0.02 | 89 | 1016.5 |
| 20260506034542 | 56 | 0 | 0.0 | 0.0 | 0.00 | 0.27 | 0.02 | 88 | 1016.6 |
| 20260506033038 | 56 | 0 | 0.0 | 0.0 | 0.00 | 0.27 | 0.02 | 88 | 1016.5 |
| 20260506031538 | 56 | 0 | 0.0 | 0.0 | 0.00 | 0.27 | 0.02 | 87 | 1016.3 |
| 20260506030036 | 56 | 0 | 0.0 | 0.0 | 0.00 | 0.27 | 0.02 | 86 | 1016.0 |
| 20260506024540 | 56 | 0 | 0.0 | 0.0 | 0.00 | 0.39 | 0.02 | 86 | 1015.9 |
| 20260506023033 | 56 | 0 | 0.0 | 1.0 | 0.00 | 0.39 | 0.02 | 86 | 1015.7 |
| 20260506021537 | 57 | 0 | 0.0 | 2.0 | 0.00 | 0.39 | 0.02 | 85 | 1015.6 |
| 20260506020037 | 57 | 0 | 0.0 | 3.0 | 0.00 | 0.39 | 0.02 | 84 | 1015.3 |
| 20260506014545 | 57 | 109 | 1.0 | 4.0 | 0.00 | 0.48 | 0.02 | 84 | 1015.5 |
| 20260506013039 | 57 | 96 | 0.0 | 4.0 | 0.00 | 0.48 | 0.02 | 84 | 1015.6 |
| 20260506011541 | 57 | 77 | 1.0 | 3.0 | 0.00 | 0.48 | 0.02 | 84 | 1015.6 |
| 20260506010035 | 57 | 82 | 1.0 | 3.0 | 0.00 | 0.48 | 0.02 | 84 | 1015.5 |
| 20260506004542 | 57 | 93 | 0.0 | 3.0 | 0.00 | 0.57 | 0.02 | 85 | 1015.4 |
| 20260506003037 | 57 | 0 | 0.0 | 1.0 | 0.00 | 0.57 | 0.02 | 85 | 1015.3 |
| 20260506001549 | 57 | 0 | 0.0 | 2.0 | 0.00 | 0.57 | 0.02 | 84 | 1015.3 |
| 20260506000044 | 57 | 0 | 0.0 | 2.0 | 0.00 | 0.57 | 0.02 | 83 | 1015.2 |
| 20260505234546 | 57 | 226 | 0.0 | 2.0 | 0.00 | 0.70 | 0.02 | 83 | 1015.0 |
| 20260505233037 | 57 | 0 | 0.0 | 2.0 | 0.00 | 0.70 | 0.02 | 83 | 1015.1 |
| 20260505231548 | 57 | 0 | 0.0 | 1.0 | 0.00 | 0.70 | 0.02 | 83 | 1015.0 |
| 20260505230038 | 57 | 0 | 0.0 | 2.0 | 0.00 | 0.70 | 0.02 | 83 | 1015.1 |
| 20260505224540 | 58 | 0 | 0.0 | 1.0 | 0.00 | 0.76 | 0.02 | 83 | 1015.0 |
| 20260505223042 | 58 | 75 | 0.0 | 2.0 | 0.00 | 0.76 | 0.02 | 82 | 1015.1 |
| 20260505221541 | 58 | 0 | 0.0 | 2.0 | 0.00 | 0.76 | 0.02 | 83 | 1015.2 |
| 20260505220041 | 58 | 0 | 0.0 | 4.0 | 0.00 | 0.76 | 0.02 | 81 | 1015.3 |
| 20260505214556 | 58 | 271 | 0.0 | 3.0 | 0.00 | 0.82 | 0.02 | 80 | 1015.4 |
| 20260505213051 | 58 | 210 | 0.0 | 4.0 | 0.00 | 0.82 | 0.02 | 80 | 1015.4 |
| 20260505211538 | 57 | 117 | 0.0 | 5.0 | 0.00 | 0.82 | 0.02 | 83 | 1015.4 |
| 20260505210036 | 58 | 269 | 0.0 | 3.0 | 0.00 | 0.82 | 0.02 | 82 | 1015.4 |
| 20260505204538 | 57 | 0 | 1.0 | 7.0 | 0.00 | 0.82 | 0.02 | 82 | 1015.4 |
| 20260505203046 | 57 | 252 | 1.0 | 5.0 | 0.00 | 0.82 | 0.02 | 82 | 1015.4 |
| 20260505201549 | 57 | 245 | 2.0 | 6.0 | 0.00 | 0.82 | 0.02 | 83 | 1015.4 |
| 20260505200037 | 56 | 226 | 1.0 | 5.0 | 0.00 | 0.82 | 0.02 | 84 | 1015.4 |
| 20260505194540 | 56 | 214 | 3.0 | 6.0 | 0.00 | 0.87 | 0.02 | 84 | 1015.6 |
| 20260505193045 | 56 | 257 | 1.0 | 3.0 | 0.00 | 0.87 | 0.02 | 84 | 1015.5 |
| 20260505191548 | 56 | 231 | 2.0 | 6.0 | 0.00 | 0.87 | 0.02 | 83 | 1015.5 |
| 20260505190044 | 57 | 260 | 3.0 | 6.0 | 0.00 | 0.87 | 0.02 | 80 | 1015.6 |
| 20260505184540 | 57 | 0 | 0.0 | 5.0 | 0.00 | 0.88 | 0.02 | 82 | 1015.3 |
| 20260505183047 | 56 | 304 | 1.0 | 4.0 | 0.00 | 0.88 | 0.02 | 81 | 1015.4 |
| 20260505181536 | 56 | 230 | 3.0 | 6.0 | 0.00 | 0.88 | 0.02 | 83 | 1015.3 |
| 20260505180040 | 57 | 240 | 1.0 | 4.0 | 0.00 | 0.88 | 0.02 | 83 | 1015.2 |
| 20260505174542 | 55 | 77 | 0.0 | 4.0 | 0.00 | 0.89 | 0.02 | 87 | 1015.1 |
| 20260505173041 | 54 | 251 | 1.0 | 3.0 | 0.00 | 0.89 | 0.02 | 88 | 1014.9 |
| 20260505171541 | 54 | 0 | 0.0 | 4.0 | 0.00 | 0.89 | 0.02 | 91 | 1015.0 |
| 20260505170037 | 53 | 94 | 0.0 | 2.0 | 0.00 | 0.89 | 0.02 | 92 | 1015.2 |
| 20260505164539 | 52 | 0 | 0.0 | 2.0 | 0.00 | 0.94 | 0.02 | 94 | 1015.1 |
| 20260505163038 | 51 | 242 | 0.0 | 3.0 | 0.00 | 0.94 | 0.02 | 95 | 1015.0 |
| 20260505161538 | 50 | 0 | 0.0 | 2.0 | 0.00 | 0.94 | 0.02 | 95 | 1015.0 |
| 20260505153037 | 49 | 0 | 0.0 | 1.0 | 0.00 | 0.94 | 0.02 | 96 | 1014.9 |
| 20260505151533 | 49 | 223 | 0.0 | 3.0 | 0.00 | 0.94 | 0.02 | 96 | 1014.7 |
| 20260505124537 | 48 | 0 | 0.0 | 0.0 | 0.00 | 0.94 | 0.02 | 96 | 1013.9 |
| 20260505123054 | 48 | 0 | 0.0 | 2.0 | 0.00 | 0.94 | 0.02 | 96 | 1013.6 |
| 20260505121541 | 48 | 0 | 0.0 | 1.0 | 0.00 | 0.94 | 0.02 | 96 | 1013.7 |
| 20260505120048 | 49 | 0 | 0.0 | 0.0 | 0.00 | 0.94 | 0.02 | 96 | 1013.6 |
| 20260505114549 | 49 | 0 | 0.0 | 1.0 | 0.00 | 0.94 | 0.02 | 96 | 1013.9 |
| 20260505113036 | 49 | 0 | 0.0 | 1.0 | 0.00 | 0.94 | 0.02 | 96 | 1013.9 |
| 20260505111537 | 49 | 0 | 0.0 | 1.0 | 0.00 | 0.94 | 0.02 | 96 | 1013.8 |
| 20260505101543 | 49 | 86 | 1.0 | 4.0 | 0.00 | 0.94 | 0.02 | 96 | 1014.0 |
| 20260505100037 | 49 | 83 | 0.0 | 4.0 | 0.00 | 0.94 | 0.02 | 96 | 1013.8 |
| 20260505094536 | 49 | 86 | 0.0 | 1.0 | 0.01 | 0.94 | 0.02 | 96 | 1014.0 |
| 20260505093043 | 49 | 0 | 0.0 | 1.0 | 0.01 | 0.94 | 0.02 | 96 | 1014.3 |
| 20260505091542 | 49 | 73 | 1.0 | 2.0 | 0.01 | 0.94 | 0.02 | 96 | 1014.4 |
| 20260505090049 | 49 | 0 | 0.0 | 0.0 | 0.01 | 0.94 | 0.02 | 96 | 1014.6 |
| 20260505084537 | 49 | 0 | 0.0 | 1.0 | 0.00 | 0.93 | 0.01 | 96 | 1014.5 |
| 20260505083037 | 49 | 0 | 0.0 | 1.0 | 0.00 | 0.93 | 0.01 | 96 | 1014.9 |
| 20260505081544 | 48 | 0 | 0.0 | 1.0 | 0.01 | 0.93 | 0.01 | 96 | 1014.9 |